Retour au catalogue

STARLINK-1556

ActifCommunicationsVLEO
NORAD 46033·PAYLOAD·🇺🇸 United States

Lancé Aug 7, 2020 depuis Cape Canaveral Space Force Station

Loading…

Prochains Passages (prochaines 24 heures)

TLE

FraisSource: CelesTrak SupGP

Époque: Sep 15, 2026, 02:16 UTC

1 46033C 20055G   26258.09493056  .00044579  00000+0  14331-2 0  2587
2 46033  53.1597 325.9720 0001010  91.7711  57.6109 15.31691241    16

Suivez STARLINK-1556 en temps réel avec AllMySat

Download on the App Store